FLOCK 3K-2 (43895 NORAD) Tracking and Keplerian Element Data

This shows tracking and keplerian element data for the satellite.

Feedback or suggestion? Click here.




ElementValue
Catalog43895
NameFLOCK 3K-2
Epoch Orbit19088
Epoch Day150.94092386
Epoch Year2022
RAAN41.832
Inclination97.1954
Eccentricity0.0020362
Argument of Perigee128.0004
Mean Anonmoly232.3084
Mean Motion15.37521032
Decay Rate0.00020334
L11 43895U 18111V 22150.94092386 .00020334 00000+0 55003-3 0 9999
L22 43895 97.1954 41.8320 0020362 128.0004 232.3084 15.37521032190889



Live tracking and technical data element details for FLOCK 3K-2 (NORAD 43895). FLOCK 3K-2 can be tracked NOW for your location showing map with azimuth and elevation plus other details from your city location.







IsCatalogInMostPopularTable: catalog: 43895, numindb: 533
Update: records affected: 1



GetName: 43895 FLOCK 3K-2

Hit Count: updated at: Thu, 16 Apr 2026 05:26:36 GMT